Weather History for Alturas, CA

Change the Weather History Date:

Monday, February 3, 2014

  Actual Average Record
Temperature  
Mean Temperature 28 °F 32 °F  
Max Temperature 38 °F 44 °F 66 °F (1995)
Min Temperature 17 °F 20 °F -15 °F (1932)
Degree Days  
Heating Degree Days 37 33  
Month to date heating degree days 115 99  
Since 1 July heating degree days 4100 4097  
Cooling Degree Days 0 0  
Month to date cooling degree days 0 0  
Year to date cooling degree days 0 0  
Moisture  
Dew Point 15 °F    
Average Humidity 60    
Maximum Humidity 84    
Minimum Humidity 35    
Precipitation  
Precipitation T in 0.05 in 0.76 in (1980)
Month to date precipitation T 0.13  
Year to date precipitation 0.12 1.78  
Sea Level Pressure  
Sea Level Pressure 29.98 in    
Wind  
Wind Speed 5 mph (WNW)    
Max Wind Speed 18 mph    
Max Gust Speed 24 mph    
Visibility 10 miles    
Events      
T = Trace of Precipitation, MM = Missing Value Source: NWS Daily Summary

Daily Weather History Graph

Daily Weather History Graph

Search for Another Location

Airport:

Trip Planner

Search our weather history database for the weather conditions in past years. The results will help you decide how hot, cold, wet, or windy it might be!

Date:

Astronomy

Feb. 03, 2014 Rise Set
Actual Time 7:11 AM PST 5:21 PM PST
Civil Twilight 6:42 AM PST 5:50 PM PST
Nautical Twilight 6:09 AM PST 6:23 PM PST
Astronomical Twilight 5:37 AM PST 6:55 PM PST
Moon 9:13 AM PST (2/3) 10:21 PM PST (2/3)
Length of Visible Light 11h 07m
Length of Day
10h 09m
Waxing Crescent, 20% of the Moon is Illuminated
Feb 3
Waxing Crescent
Feb 6
First Quarter
Feb 14
Full
Feb 22
Last Quarter
Mar 1
New

Hourly Weather History & Observations

Time (PST) Temp. Windchill Dew Point Humidity Pressure Visibility Wind Dir Wind Speed Gust Speed Precip Events Conditions
12:55 AM 17.1 °F - 12.0 °F 81% 29.95 in 8.0 mi Calm Calm - N/A   Overcast
1:55 AM 18.0 °F - 12.9 °F 81% 29.94 in 9.0 mi Calm Calm - N/A   Mostly Cloudy
2:55 AM 19.0 °F - 12.9 °F 77% 29.94 in 9.0 mi North - - N/A   Overcast
3:55 AM 21.0 °F 16.2 °F 15.1 °F 78% 29.92 in 10.0 mi SSW 3.5 mph - N/A   Overcast
4:55 AM 21.0 °F - 15.1 °F 78% 29.93 in 10.0 mi Calm Calm - N/A   Overcast
5:55 AM 21.0 °F - 16.0 °F 81% 29.94 in 10.0 mi Calm Calm - N/A   Overcast
6:55 AM 21.0 °F 16.2 °F 17.1 °F 85% 29.96 in 10.0 mi ESE 3.5 mph - N/A   Overcast
7:55 AM 21.9 °F - 17.1 °F 82% 29.97 in 10.0 mi Calm Calm - N/A   Overcast
8:55 AM 26.1 °F - 19.0 °F 75% 29.99 in 9.0 mi Calm Calm - N/A   Overcast
9:51 AM 32.0 °F 26.4 °F 24.8 °F 75% 29.93 in 10.0 mi WNW 5.8 mph - 0.00 in   Overcast
9:55 AM 32.0 °F 27.5 °F 23.0 °F 69% 29.99 in 10.0 mi West 4.6 mph - 0.00 in   Overcast
10:48 AM 32.0 °F 23.0 °F 19.9 °F 61% 29.94 in 10.0 mi NW 11.5 mph - N/A   Mostly Cloudy
10:55 AM 33.1 °F 26.1 °F 21.0 °F 61% 30.00 in 10.0 mi WNW 8.1 mph - N/A   Mostly Cloudy
11:55 AM 34.0 °F 24.2 °F 15.1 °F 46% 29.99 in 10.0 mi WNW 15.0 mph - N/A   Overcast
12:55 PM 35.1 °F 26.4 °F 14.0 °F 42% 30.00 in 10.0 mi NW 12.7 mph - N/A   Overcast
1:55 PM 35.1 °F 27.4 °F 12.9 °F 40% 29.97 in 10.0 mi WNW 10.4 mph - N/A   Mostly Cloudy
2:55 PM 37.9 °F 30.0 °F 12.0 °F 35% 29.95 in 10.0 mi WNW 12.7 mph 19.6 mph N/A   Partly Cloudy
3:55 PM 36.0 °F 26.7 °F 12.0 °F 37% 29.95 in 10.0 mi NNW 15.0 mph 21.9 mph N/A   Clear
4:55 PM 32.0 °F 23.6 °F 10.9 °F 42% 29.97 in 10.0 mi NW 10.4 mph - N/A   Partly Cloudy
5:55 PM 28.9 °F 25.2 °F 10.9 °F 47% 30.00 in 10.0 mi Variable 3.5 mph - N/A   Clear
6:55 PM 26.1 °F 20.5 °F 12.0 °F 55% 30.01 in 10.0 mi West 4.6 mph - N/A   Clear
7:55 PM 24.1 °F 18.2 °F 12.0 °F 60% 30.04 in 10.0 mi SW 4.6 mph - N/A   Clear
8:55 PM 23.0 °F 14.7 °F 12.0 °F 63% 30.05 in 10.0 mi WNW 6.9 mph - N/A   Clear
9:55 PM 18.0 °F 7.7 °F 10.0 °F 71% 30.06 in 10.0 mi West 8.1 mph - N/A   Clear
10:55 PM 17.1 °F - 10.0 °F 74% 30.06 in 10.0 mi Calm Calm - N/A   Clear
11:55 PM 18.0 °F - 10.9 °F 74% 30.06 in 8.0 mi Calm Calm - N/A   Overcast